P/2006 HR30 ( Siding Spring )

Japanese version
Home page
Updated on July 12, 2026

---------------------------------------------------------------------

* Profile

Discovery Date April 20, 2006
Magnitude 18.7 mag
Discoverer Siding Spring Survey

* Pictures

* Orbital Elements

                    Epoch = 2007 Jan. 20.0 TT
     T = 2007 Jan.  2.28119 TT        Peri. = 117.41382
     e = 0.8431412                    Node  = 309.95124 2000.0
     q = 1.2264311 AU                 Incl. =  31.88456
       a =  7.8186946 AU   n = 0.04508195   P =  21.86 years

* Finding Charts

* Magnitudes Graph

        H = 11.9  G = 0.15

---------------------------------------------------------------------

The orbital elements are printed on CBET 5708.
The charts are made with StellaNavigator Ver.2.0 for Windows (AstroArts / ASCII).
The magnitudes graphs are made with Comet for Windows.

---------------------------------------------------------------------

Copyright(C) Seiichi Yoshida (comet@aerith.net). All rights reserved.